EW5171 Weather Reports


Display with metric or nautical units.
time (UTC)temp
F
wind
direction
speed
MPH
gust
MPH
rain 1hr
in
rain 24hr
in
rain mn
in
humidity
%
barometer
mb
20260901161519 65 267 1.0 10.0 0.01 0.06 0.06 75 1012.5
20260901161019 65 263 2.0 12.0 0.01 0.06 0.06 73 1012.5
20260901160518 66 310 1.0 9.0 0.01 0.06 0.06 74 1012.4
20260901160017 66 236 2.0 9.0 0.01 0.06 0.06 74 1012.3
20260901155517 66 121 2.0 9.0 0.01 0.07 0.06 74 1012.3
20260901155017 66 309 0.0 9.0 0.01 0.07 0.06 75 1012.3
20260901154516 66 184 1.0 9.0 0.01 0.07 0.06 74 1012.3
20260901154021 66 270 2.0 7.0 0.01 0.07 0.06 73 1012.3
20260901153517 66 134 1.0 7.0 0.01 0.07 0.06 73 1012.2
20260901153015 67 182 2.0 7.0 0.00 0.06 0.06 72 1012.1
20260901152518 68 332 2.0 6.0 0.00 0.06 0.06 72 1012.1
20260901152018 68 281 2.0 5.0 0.00 0.06 0.06 71 1012.1
20260901151514 69 255 1.0 7.0 0.00 0.06 0.06 70 1012.0
20260901151015 69 203 1.0 7.0 0.00 0.06 0.06 71 1012.0
20260901150513 69 115 2.0 11.0 0.00 0.06 0.06 70 1012.0
20260901150014 69 273 1.0 9.0 0.00 0.06 0.06 71 1012.0
20260901145513 69 154 2.0 8.0 0.00 0.07 0.06 71 1011.9
20260901145012 68 257 2.0 9.0 0.00 0.07 0.06 72 1011.9
20260901144512 68 279 2.0 9.0 0.00 0.07 0.06 72 1011.9
20260901144015 68 263 2.0 9.0 0.01 0.07 0.06 71 1012.0
20260901143514 68 276 3.0 9.0 0.01 0.07 0.06 71 1011.9
20260901143013 68 83 1.0 8.0 0.01 0.07 0.06 71 1011.9
20260901142510 69 257 2.0 8.0 0.01 0.07 0.06 71 1011.9
20260901142010 69 206 1.0 11.0 0.01 0.07 0.06 70 1011.9
20260901141510 69 193 4.0 11.0 0.01 0.07 0.06 69 1011.8
20260901141013 69 291 1.0 7.0 0.01 0.07 0.06 69 1011.8
20260901140509 70 288 2.0 7.0 0.01 0.07 0.06 69 1011.8
20260901140011 70 107 2.0 7.0 0.01 0.07 0.06 69 1011.8
20260901135511 70 315 1.0 7.0 0.01 0.07 0.06 69 1011.7
20260901135009 70 217 2.0 7.0 0.01 0.07 0.06 69 1011.8
20260901134510 69 194 0.0 5.0 0.01 0.07 0.06 70 1011.8
20260901134007 70 59 2.0 7.0 0.00 0.06 0.05 69 1011.7
20260901133507 70 208 1.0 7.0 0.00 0.06 0.05 70 1011.7
20260901133007 70 51 0.0 5.0 0.00 0.06 0.05 69 1011.7
20260901132507 70 289 1.0 5.0 0.00 0.06 0.05 69 1011.7
20260901132009 70 298 2.0 7.0 0.00 0.06 0.05 68 1011.7
20260901131505 70 194 1.0 7.0 0.00 0.06 0.05 70 1011.7
20260901131009 69 205 1.0 6.0 0.00 0.06 0.05 70 1011.5
20260901130506 69 130 2.0 8.0 0.00 0.06 0.05 70 1011.6
20260901130007 69 316 3.0 8.0 0.00 0.06 0.05 69 1011.6
20260901125504 69 290 2.0 5.0 0.00 0.06 0.05 69 1011.5
20260901125004 70 289 2.0 7.0 0.00 0.06 0.05 69 1011.6
20260901124505 70 219 1.0 7.0 0.00 0.06 0.05 68 1011.5
20260901124003 70 50 1.0 5.0 0.00 0.06 0.05 70 1011.5
20260901123503 69 271 2.0 8.0 0.00 0.06 0.05 69 1011.5
20260901123003 69 275 1.0 9.0 0.00 0.06 0.05 69 1011.5
20260901122504 69 281 2.0 9.0 0.00 0.06 0.05 69 1011.6
20260901122002 70 86 2.0 9.0 0.01 0.06 0.05 69 1011.6
20260901121501 70 307 2.0 9.0 0.01 0.06 0.05 68 1011.5
20260901121003 70 167 2.0 8.0 0.01 0.06 0.05 66 1011.5
20260901120601 70 250 2.0 8.0 0.01 0.06 0.05 68 1011.5
20260901120503 70 247 1.0 8.0 0.01 0.06 0.05 69 1011.5
20260901120108 70 167 3.0 9.0 0.01 0.06 0.05 67 1011.5
20260901115557 70 271 1.0 6.0 0.01 0.07 0.05 72 1011.5
20260901115101 69 301 3.0 7.0 0.01 0.07 0.05 70 1011.5
20260901114601 69 293 1.0 7.0 0.01 0.07 0.05 73 1011.5
20260901114057 68 256 2.0 7.0 0.01 0.07 0.05 73 1011.5
20260901113554 68 209 3.0 7.0 0.01 0.07 0.05 74 1011.5
20260901113052 68 248 2.0 7.0 0.01 0.07 0.05 73 1011.6
20260901112550 68 310 1.0 8.0 0.01 0.07 0.05 77 1011.5
20260901112053 68 216 2.0 8.0 0.00 0.06 0.04 77 1011.6
20260901111556 67 215 3.0 6.0 0.00 0.06 0.04 79 1011.6
20260901111049 67 286 1.0 6.0 0.00 0.06 0.04 79 1011.6
20260901110548 67 276 1.0 7.0 0.00 0.06 0.04 78 1011.6
20260901110051 67 246 3.0 7.0 0.01 0.06 0.04 79 1011.5
20260901105548 67 190 3.0 6.0 0.01 0.07 0.04 78 1011.5
20260901105046 67 219 2.0 5.0 0.01 0.07 0.04 77 1011.4
20260901104546 67 178 2.0 5.0 0.01 0.07 0.04 79 1011.4
20260901104049 67 199 2.0 9.0 0.01 0.07 0.04 81 1011.3
20260901103544 66 318 2.0 9.0 0.01 0.07 0.04 80 1011.4
20260901103051 66 204 2.0 7.0 0.01 0.07 0.04 80 1011.3
20260901102542 66 232 3.0 7.0 0.01 0.07 0.04 80 1011.3
20260901102042 66 121 2.0 9.0 0.01 0.07 0.04 80 1011.4
20260901101541 66 288 3.0 8.0 0.01 0.07 0.04 80 1011.3
20260901101041 66 195 2.0 7.0 0.01 0.07 0.04 81 1011.3
20260901100541 66 180 3.0 12.0 0.00 0.06 0.03 80 1011.2
20260901100039 66 274 4.0 12.0 0.00 0.06 0.03 80 1011.2
20260901095538 65 313 3.0 9.0 0.00 0.06 0.03 82 1011.2
20260901095036 65 280 3.0 7.0 0.00 0.06 0.03 82 1011.1
20260901094536 65 206 2.0 7.0 0.00 0.06 0.03 84 1011.1
20260901094035 65 161 2.0 9.0 0.00 0.06 0.03 83 1011.2
20260901093633 65 267 3.0 9.0 0.00 0.06 0.03 83 1011.1
20260901093033 65 201 3.0 11.0 0.00 0.06 0.03 83 1011.1
20260901092533 64 228 4.0 11.0 0.00 0.06 0.03 84 1011.2
20260901092032 64 286 3.0 10.0 0.00 0.06 0.03 85 1011.1
20260901091529 64 284 3.0 10.0 0.00 0.06 0.03 85 1011.2
20260901091028 64 166 1.0 10.0 0.00 0.06 0.03 85 1011.1
20260901090528 63 274 3.0 10.0 0.00 0.06 0.03 87 1011.1
20260901090026 63 278 1.0 11.0 0.01 0.06 0.03 88 1010.9
20260901085524 62 281 1.0 11.0 0.01 0.07 0.03 89 1011.0
20260901085024 62 168 2.0 7.0 0.01 0.07 0.03 89 1010.9
20260901084523 62 268 2.0 9.0 0.01 0.07 0.03 90 1010.9
20260901084021 62 223 2.0 9.0 0.01 0.07 0.03 90 1010.9
20260901083522 62 215 1.0 6.0 0.01 0.07 0.03 90 1010.8
20260901083021 62 270 1.0 11.0 0.01 0.07 0.03 90 1010.8
20260901082520 63 275 3.0 11.0 0.01 0.07 0.03 90 1010.7
20260901082022 63 297 1.0 7.0 0.01 0.07 0.03 91 1010.6
20260901081518 63 325 2.0 6.0 0.01 0.07 0.03 91 1010.6
20260901081018 63 207 3.0 9.0 0.01 0.07 0.03 92 1010.5
20260901080517 63 273 2.0 6.0 0.01 0.07 0.03 94 1010.5
20260901080016 63 202 1.0 5.0 0.00 0.06 0.02 95 1010.4
20260901075515 62 277 1.0 5.0 0.00 0.07 0.02 96 1010.3
20260901075018 61 295 1.0 7.0 0.00 0.07 0.02 96 1010.3
20260901074511 61 198 2.0 7.0 0.00 0.07 0.02 97 1010.3
20260901074015 61 302 2.0 10.0 0.00 0.07 0.02 97 1010.2
20260901073511 60 300 4.0 10.0 0.00 0.07 0.02 97 1010.3
20260901073010 60 164 2.0 5.0 0.00 0.07 0.02 98 1010.3
20260901072510 61 223 2.0 4.0 0.00 0.07 0.02 98 1010.3
20260901072008 60 78 1.0 8.0 0.00 0.07 0.02 98 1010.2
20260901071508 60 279 3.0 8.0 0.01 0.07 0.02 98 1010.2
20260901071007 60 197 1.0 4.0 0.01 0.07 0.02 98 1010.1
20260901070506 60 202 1.0 7.0 0.01 0.07 0.02 98 1010.1
20260901070008 60 300 1.0 7.0 0.01 0.07 0.02 98 1010.0
20260901065506 60 311 1.0 5.0 0.01 0.07 0.02 98 1010.0
20260901065005 60 302 2.0 7.0 0.01 0.07 0.02 98 1009.9
20260901064504 59 178 1.0 7.0 0.01 0.07 0.02 98 1009.9
20260901064003 59 169 2.0 7.0 0.01 0.07 0.02 98 1010.0
20260901063502 59 236 3.0 7.0 0.01 0.07 0.02 98 1010.0
20260901063105 58 272 1.0 5.0 0.01 0.07 0.02 98 1009.9
20260901062600 58 165 1.0 5.0 0.01 0.07 0.02 98 1009.9
20260901062101 58 245 0.0 4.0 0.01 0.07 0.02 98 1009.9
20260901061557 58 103 1.0 4.0 0.00 0.06 0.02 98 1009.9
20260901061056 58 221 0.0 4.0 0.00 0.06 0.02 98 1009.8
20260901060555 58 291 1.0 6.0 0.00 0.06 0.02 98 1009.8
20260901060054 57 290 1.0 4.0 0.00 0.06 0.02 98 1009.7
20260901055553 57 271 0.0 4.0 0.00 0.07 0.02 98 1009.7
20260901055053 57 281 1.0 4.0 0.00 0.07 0.02 98 1009.7
20260901054554 57 244 1.0 4.0 0.00 0.07 0.02 98 1009.7
20260901054053 57 265 0.0 5.0 0.00 0.07 0.02 98 1009.7
20260901053551 57 264 1.0 5.0 0.00 0.07 0.02 98 1009.7
20260901053059 57 274 1.0 3.0 0.00 0.07 0.02 98 1009.7
20260901052549 57 300 0.0 4.0 0.00 0.07 0.02 98 1009.7
20260901052048 57 300 1.0 4.0 0.00 0.07 0.02 98 1009.6
20260901051548 57 269 1.0 3.0 0.00 0.07 0.02 98 1009.6
20260901051047 57 232 1.0 3.0 0.00 0.07 0.02 98 1009.6
20260901050549 56 292 0.0 4.0 0.00 0.07 0.02 98 1009.6
20260901050046 56 292 0.0 4.0 0.00 0.07 0.02 98 1009.6
20260901045545 56 302 1.0 5.0 0.00 0.08 0.02 98 1009.5
20260901045044 56 288 2.0 5.0 0.00 0.08 0.02 98 1009.4
20260901044551 56 212 0.0 5.0 0.00 0.08 0.02 98 1009.4
20260901044046 56 277 1.0 5.0 0.00 0.08 0.02 98 1009.4
20260901043543 56 317 1.0 4.0 0.00 0.08 0.02 98 1009.4
20260901043043 56 280 1.0 4.0 0.00 0.08 0.02 98 1009.3
20260901042542 56 303 1.0 4.0 0.00 0.08 0.02 98 1009.2
20260901042042 56 276 1.0 4.0 0.00 0.08 0.02 98 1009.2
20260901041601 56 309 0.0 5.0 0.00 0.08 0.02 98 1009.2
20260901041045 56 278 1.0 5.0 0.00 0.08 0.02 97 1009.1
20260901040540 56 315 1.0 7.0 0.00 0.08 0.02 97 1009.1
20260901040055 56 294 2.0 7.0 0.00 0.08 0.02 97 1009.1
20260901035543 56 287 2.0 7.0 0.00 0.08 0.02 97 1009.1
20260901035041 56 286 1.0 6.0 0.00 0.08 0.02 97 1009.1
20260901034539 57 273 1.0 6.0 0.00 0.08 0.02 97 1009.1
20260901034038 57 286 0.0 4.0 0.00 0.08 0.02 97 1009.1
20260901033542 57 287 1.0 4.0 0.00 0.08 0.02 97 1009.0
20260901033040 56 287 1.0 3.0 0.00 0.08 0.02 97 1008.9
20260901032538 56 266 0.0 4.0 0.00 0.08 0.02 97 1008.9
20260901032040 56 267 0.0 4.0 0.00 0.08 0.02 97 1008.9
20260901031535 56 179 0.0 4.0 0.01 0.08 0.02 97 1008.8
20260901031035 56 282 1.0 5.0 0.01 0.08 0.02 97 1008.8
20260901030537 56 219 1.0 5.0 0.01 0.08 0.02 97 1008.8
20260901030035 56 260 2.0 6.0 0.01 0.08 0.02 97 1008.8
20260901025534 56 304 0.0 4.0 0.01 0.09 0.02 97 1008.7
20260901025034 56 319 0.0 3.0 0.01 0.09 0.02 97 1008.7
20260901024534 56 182 1.0 5.0 0.01 0.09 0.02 97 1008.6
20260901024034 56 288 1.0 5.0 0.01 0.09 0.02 97 1008.6
20260901023533 56 282 1.0 4.0 0.01 0.09 0.02 97 1008.6
20260901023033 56 297 1.0 4.0 0.01 0.09 0.02 97 1008.6
20260901022533 56 288 1.0 7.0 0.01 0.09 0.02 97 1008.6
20260901022033 56 254 1.0 7.0 0.01 0.09 0.02 97 1008.7
20260901021535 56 285 2.0 5.0 0.00 0.09 0.01 97 1008.6
20260901021031 56 326 1.0 4.0 0.00 0.09 0.01 97 1008.5
20260901020532 56 188 0.0 7.0 0.00 0.09 0.01 97 1008.4
20260901020030 56 279 0.0 7.0 0.00 0.09 0.01 97 1008.4
20260901015530 56 219 1.0 4.0 0.00 0.09 0.01 97 1008.4
20260901015028 56 291 1.0 4.0 0.00 0.09 0.01 97 1008.3
20260901014528 56 280 0.0 2.0 0.00 0.09 0.01 97 1008.2
20260901014027 56 279 0.0 3.0 0.00 0.09 0.01 97 1008.1
20260901013527 56 279 1.0 3.0 0.00 0.09 0.01 97 1008.1
20260901013026 56 279 0.0 2.0 0.00 0.09 0.01 97 1008.1
20260901012526 56 279 0.0 2.0 0.00 0.09 0.01 97 1008.1
20260901012026 56 279 0.0 3.0 0.00 0.09 0.01 97 1008.0
20260901011535 56 279 0.0 3.0 0.00 0.09 0.01 97 1008.0
20260901011025 56 279 0.0 3.0 0.00 0.09 0.01 97 1008.1
20260901010525 56 279 1.0 3.0 0.00 0.09 0.01 97 1008.0
20260901010035 56 279 0.0 2.0 0.00 0.09 0.01 97 1008.1
20260901005526 56 279 0.0 2.0 0.00 0.09 0.01 97 1008.0
20260901005025 56 279 0.0 3.0 0.00 0.09 0.01 96 1008.0
20260901004527 56 279 0.0 3.0 0.00 0.09 0.01 96 1008.0
20260901004023 56 246 0.0 1.0 0.00 0.09 0.01 96 1008.0
20260901003524 56 246 0.0 2.0 0.00 0.09 0.01 97 1008.0
20260901003024 57 246 0.0 3.0 0.00 0.09 0.01 97 1008.0
20260901002523 57 246 1.0 3.0 0.00 0.09 0.01 97 1008.0
20260901002023 57 247 0.0 2.0 0.00 0.09 0.01 97 1008.0
20260901001527 57 302 0.0 2.0 0.00 0.09 0.01 97 1007.9
20260901001021 57 302 0.0 2.0 0.00 0.09 0.01 97 1007.9
20260901000521 57 302 0.0 3.0 0.00 0.09 0.01 97 1007.9
20260901000021 57 302 0.0 4.0 0.00 0.09 0.01 97 1008.0
20260831235521 56 302 0.0 4.0 0.01 0.10 0.01 97 1007.9
20260831235020 56 304 0.0 2.0 0.01 0.10 0.01 96 1007.9
20260831234522 56 304 0.0 2.0 0.01 0.10 0.01 96 1007.9
20260831234019 56 306 0.0 1.0 0.01 0.10 0.01 96 1007.9
20260831233519 56 306 0.0 1.0 0.01 0.10 0.01 96 1007.9
20260831233034 56 306 0.0 1.0 0.01 0.10 0.01 96 1007.8
20260831232518 56 306 0.0 2.0 0.01 0.10 0.01 96 1007.8
20260831232021 56 244 0.0 2.0 0.01 0.10 0.01 96 1007.8
20260831231520 56 281 0.0 2.0 0.01 0.10 0.01 96 1007.8
20260831231016 56 281 0.0 2.0 0.01 0.10 0.01 96 1007.7
20260831230516 57 281 0.0 1.0 0.01 0.10 0.01 96 1007.7
20260831230016 57 281 0.0 2.0 0.00 0.09 0.00 96 1007.7
20260831225514 57 281 0.0 2.0 0.00 0.11 0.00 96 1007.6
20260831225017 57 281 0.0 2.0 0.00 0.11 0.00 96 1007.7
20260831224515 57 281 0.0 1.0 0.00 0.11 0.00 96 1007.7
20260831224014 57 301 0.0 1.0 0.00 0.11 0.00 96 1007.7
20260831223513 57 301 0.0 1.0 0.00 0.11 0.00 96 1007.6
20260831223012 57 301 0.0 1.0 0.00 0.11 0.00 96 1007.6
20260831222512 57 301 0.0 0.0 0.00 0.11 0.00 96 1007.5
20260831222014 57 301 0.0 1.0 0.00 0.11 0.00 96 1007.5
20260831221509 57 301 0.0 1.0 0.00 0.11 0.00 96 1007.5
20260831221009 57 301 0.0 2.0 0.00 0.11 0.00 96 1007.5
20260831220509 57 301 0.0 2.0 0.00 0.11 0.00 96 1007.5
20260831220011 57 301 0.0 1.0 0.00 0.11 0.00 96 1007.5
20260831215508 57 301 0.0 1.0 0.00 0.13 0.11 96 1007.5
20260831215006 57 301 0.0 1.0 0.00 0.13 0.11 96 1007.5
20260831214507 57 301 0.0 3.0 0.00 0.13 0.11 96 1007.5
20260831214007 57 301 0.0 3.0 0.00 0.13 0.11 96 1007.4
20260831213507 57 19 0.0 2.0 0.00 0.13 0.11 96 1007.4
20260831213006 57 280 0.0 2.0 0.00 0.13 0.11 95 1007.3
20260831212506 57 280 0.0 2.0 0.00 0.13 0.11 95 1007.3
20260831212006 57 280 0.0 2.0 0.00 0.13 0.11 95 1007.2
20260831211506 57 280 0.0 1.0 0.00 0.13 0.11 95 1007.2
20260831211005 57 280 0.0 2.0 0.00 0.13 0.11 95 1007.2
20260831210506 57 280 0.0 2.0 0.00 0.13 0.11 96 1007.2
20260831210006 57 280 0.0 1.0 0.00 0.13 0.11 96 1007.1
20260831205605 57 280 0.0 1.0 0.00 0.13 0.11 95 1007.2
20260831205008 57 280 0.0 2.0 0.00 0.13 0.11 95 1007.1
20260831204505 57 280 0.0 2.0 0.00 0.13 0.11 95 1007.1
20260831204005 57 280 0.0 2.0 0.00 0.13 0.11 95 1007.1
20260831203505 57 255 0.0 2.0 0.00 0.13 0.11 95 1007.0
20260831203004 57 223 0.0 2.0 0.00 0.13 0.11 95 1007.0
20260831202504 57 172 0.0 1.0 0.00 0.13 0.11 94 1007.0
20260831202004 57 172 0.0 1.0 0.00 0.13 0.11 95 1007.0
20260831201503 57 172 0.0 1.0 0.00 0.13 0.11 94 1007.1
20260831201003 57 172 0.0 1.0 0.00 0.13 0.11 94 1007.1
20260831200503 57 172 0.0 1.0 0.00 0.13 0.11 94 1007.1
20260831200003 57 172 0.0 0.0 0.00 0.13 0.11 94 1007.0
20260831195502 57 172 0.0 0.0 0.00 0.15 0.11 94 1007.0
20260831195003 57 172 0.0 0.0 0.00 0.15 0.11 94 1007.1
20260831194503 57 172 0.0 0.0 0.00 0.15 0.11 93 1007.0
20260831194002 57 172 0.0 0.0 0.00 0.15 0.11 93 1007.1
20260831193503 58 172 0.0 0.0 0.00 0.15 0.11 93 1007.0
20260831193001 58 172 0.0 0.0 0.00 0.15 0.11 93 1006.9
20260831192501 58 172 0.0 0.0 0.00 0.15 0.11 93 1006.9
20260831192001 58 172 0.0 0.0 0.00 0.15 0.11 93 1006.8
20260831191501 59 172 0.0 0.0 0.00 0.15 0.11 93 1006.8
20260831191001 59 172 0.0 0.0 0.00 0.15 0.11 93 1006.7
20260831190501 59 172 0.0 0.0 0.00 0.15 0.11 93 1006.8
20260831190001 59 172 0.0 0.0 0.00 0.15 0.11 93 1006.8
20260831185601 59 172 0.0 0.0 0.00 0.17 0.11 93 1006.7
20260831185104 60 172 0.0 1.0 0.00 0.17 0.11 92 1006.6
20260831184601 60 172 0.0 1.0 0.00 0.17 0.11 92 1006.6
20260831184104 60 172 0.0 0.0 0.00 0.17 0.11 92 1006.5
20260831183600 60 172 0.0 1.0 0.00 0.17 0.11 92 1006.5
20260831183108 61 172 0.0 1.0 0.00 0.17 0.11 92 1006.4
20260831182600 61 172 0.0 1.0 0.00 0.17 0.11 91 1006.4
20260831182102 61 172 0.0 1.0 0.00 0.17 0.11 91 1006.4
20260831181607 61 172 0.0 1.0 0.00 0.17 0.11 91 1006.4
20260831181059 62 172 0.0 1.0 0.00 0.17 0.11 91 1006.2
20260831180558 62 172 0.0 1.0 0.00 0.17 0.11 91 1006.2
20260831180113 62 172 0.0 2.0 0.00 0.17 0.11 91 1006.2
20260831175558 62 172 0.0 2.0 0.00 0.18 0.11 91 1006.1
20260831175103 63 172 0.0 2.0 0.00 0.18 0.11 91 1006.2
20260831174558 63 250 0.0 2.0 0.00 0.18 0.11 90 1006.1
20260831174058 63 250 0.0 2.0 0.00 0.18 0.11 90 1006.1
20260831173558 63 250 0.0 3.0 0.00 0.18 0.11 90 1006.1
20260831173058 63 250 0.0 4.0 0.00 0.18 0.11 90 1006.0
20260831172557 63 262 1.0 4.0 0.00 0.18 0.11 89 1006.1
20260831172057 63 158 0.0 3.0 0.00 0.18 0.11 89 1006.0
20260831171557 63 208 1.0 3.0 0.00 0.18 0.11 89 1006.0
20260831171058 63 183 1.0 4.0 0.00 0.18 0.11 89 1005.9
20260831170558 63 229 0.0 5.0 0.00 0.18 0.11 88 1005.8
20260831170058 64 202 1.0 5.0 0.00 0.18 0.11 88 1005.9
20260831165556 64 200 1.0 8.0 0.00 0.20 0.11 88 1005.9
20260831165057 64 167 1.0 8.0 0.01 0.20 0.11 88 1005.9
20260831164557 64 200 3.0 8.0 0.01 0.20 0.11 88 1005.9
20260831164059 64 158 3.0 7.0 0.01 0.20 0.11 88 1005.8
20260831163556 64 275 2.0 9.0 0.01 0.20 0.11 89 1005.8
20260831163056 64 121 4.0 9.0 0.01 0.20 0.11 89 1005.9
20260831162557 64 288 2.0 8.0 0.01 0.20 0.11 90 1005.9
20260831162056 64 224 3.0 8.0 0.01 0.20 0.11 90 1005.9